Regional Weather Roundup
Issued by NWS Mt. Holly, NJ

Home | Current Version | Previous Version | Text Only | Print | Product List | Glossary On
Versions: 1 2 3 4 5 6 7 8 9 10 11 12 13 14 15 16 17 18 19 20 21 22 23 24 25 26 27 28 29 30 31 32 33 34 35 36 37 38 39 40 41 42 43 44 45 46 47 48 49 50
000
ASUS41 KPHI 091012
RWRPHI

REGIONAL WEATHER ROUNDUP
NATIONAL WEATHER SERVICE MOUNT HOLLY NJ
500 AM EST TUE FEB 09 2016

NOTE:  "FAIR" INDICATES FEW OR NO CLOUDS BELOW 12,000 FEET WITH NO
SIGNIFICANT WEATHER AND/OR OBSTRUCTIONS TO VISIBILITY.

 * = STATION DOES NOT REPORT PRECIPITATION (E.G. RAIN, SNOW, ETC.)
        OR FOG.

NJZ015>026-091100-
SOUTHERN NEW JERSEY

CITY           SKY/WX    TMP DP  RH WIND       PRES   REMARKS
POMONA         CLOUDY    34  30  85 NE6       29.62R WCI  29
WILDWOOD*      CLOUDY    37  32  81 NE10      29.61R WCI  30
MILLVILLE      CLOUDY    33  32  96 E9        29.61R WCI  25
WRIGHTSTOWN    CLOUDY    30  30 100 NE8       29.60F WCI  23
MOUNT HOLLY    CLOUDY    30  28  92 E6        29.63F WCI  24
TRENTON        CLOUDY    29  25  85 NE8       29.62F WCI  21

$$
NJZ001>014-091100-
NORTHERN NEW JERSEY

CITY           SKY/WX    TMP DP  RH WIND       PRES   REMARKS
SUSSEX         CLOUDY    25  21  85 NE7       29.64F WCI  17
ANDOVER*         N/A     26  20  77 VRB3      29.63F
MORRISTOWN     CLOUDY    27  21  80 NE6       29.65F WCI  20
NEWARK         FLURRIES  29  23  78 NE8       29.66F WCI  21
TETERBORO      FLURRIES  27  20  75 N7        29.66F WCI  19
CALDWELL       CLOUDY    26  20  77 NE8       29.66F WCI  18
SOMERVILLE     CLOUDY    28  23  81 NE7       29.63F WCI  21
ALLAIRE*       CLOUDY    30  21  69 NE12      29.63S WCI  21
TOMS RIVER*    CLOUDY    32  27  80 NE8       29.63R WCI  25

$$
PAZ043-044-047-054-055-060>062-066>071-091100-
EASTERN PENNSYLVANIA

CITY           SKY/WX    TMP DP  RH WIND       PRES   REMARKS
PHILADELPHIA   CLOUDY    32  27  81 NE10      29.64S WCI  24
NORTH PHILA    CLOUDY    32  27  81 E9        29.65S WCI  24
BLUE BELL*       N/A     30  27  86 E7        29.61F WCI  23
DOYLESTOWN     CLOUDY    27  25  92 VRB3      29.61F
QUAKERTOWN*    CLOUDY    28  27  93 E5        29.61F WCI  23
POTTSTOWN      CLOUDY    29  26  89 E5        29.63S WCI  24
LANCASTER      CLOUDY    30  28  92 E9        29.59F WCI  22
COATESVILLE    CLOUDY    30  30 100 E9G15     29.59F WCI  22
READING        CLOUDY    30  25  81 E8        29.61S WCI  22
ALLENTOWN      CLOUDY    29  24  82 NE8       29.62F WCI  21
MOUNT POCONO   CLOUDY    22  19  89 E7        29.53F WCI  13
HAZLETON       CLOUDY    27  23  86 E6        29.56F WCI  20
LEHIGHTON      CLOUDY    30  27  86 CALM      29.62F
WILKES BARRE   LGT SNOW  28  23  81 NE5       29.57F WCI  23

$$
DEZALL-MDZ008-012-015-019-020-091100-
DELAWARE AND EASTERN MARYLAND

CITY           SKY/WX    TMP DP  RH WIND       PRES   REMARKS
WILMINGTON     CLOUDY    32  29  88 NE9       29.62S WCI  24
DOVER          FLURRIES  36  36 100 E12       29.59R WCI  27
GEORGETOWN     MIX PCPN  37  36  96 E8        29.59S WCI  31
EASTON         DRIZZLE   37  37 100 SE5       29.62R WCI  33
PATUXENT       CLOUDY    38  35  89 E9        29.57S FOG     WCI  31
OCEAN CITY     LGT RAIN  40  36  86 E9        29.57S WCI  34
WALLOPS ISLAND LGT RAIN  41  38  89 NE9       29.56F
CAMBRIDGE      CLOUDY    36  34  93 E5        29.58S WCI  32
SALISBURY      LGT RAIN  38  36  92 NE6       29.58R WCI  33

$$
PAZ001-021-NYZ056-072-MDZ011-DCZ001-091100-
OTHER NEARBY LOCATIONS

CITY           SKY/WX    TMP DP  RH WIND       PRES   REMARKS
HARRISBURG     LGT SNOW  32  28  85 E9        29.58F WCI  24
STATE COLLEGE  CLOUDY    33  31  94 SE5       29.51S WCI  28
WILLIAMSPORT   CLOUDY    32  27  81 E13       29.57S WCI  22
BINGHAMTON     CLOUDY    25  22  88 SE9       29.53S WCI  15
NEW YORK CITY  CLOUDY    27  21  78 NE8       29.67F WCI  19
BALTIMORE      LGT SNOW  34  33  96 E9        29.58S FOG     WCI  27
WASHINGTON DC  LGT RAIN  37  35  92 E6        29.58S FOG     WCI  32

$$



USA.gov is the U.S. government's official web portal to all federal, state and local government web resources and services.